IRIDIUM 42 [-] (25077 NORAD) Tracking and Keplerian Element Data

This shows tracking and keplerian element data for the satellite.

Feedback or suggestion? Click here.




ElementValue
Catalog25077
NameIRIDIUM 42 [-]
Epoch Orbit7844
Epoch Day195.62468255
Epoch Year2018
RAAN217.7974
Inclination86.3968
Eccentricity0.0002781
Argument of Perigee90.4269
Mean Anonmoly269.7245
Mean Motion14.34526763
Decay Rate1E-06
L11 25077U 97077A 18195.62468255 .00000100 00000-0 28543-4 0 9990
L22 25077 86.3968 217.7974 0002781 90.4269 269.7245 14.34526763 78447

Live tracking and technical data element details for IRIDIUM 42 [-] (NORAD 25077). IRIDIUM 42 [-] can be tracked NOW for your location showing map with azimuth and elevation plus other details from your city location.

Track the satellite on the map from your city or location and see movement details for azimuth, elevation, latitude, longitude, range, height, and movement on the map or in text.







IsCatalogInMostPopularTable: catalog: 25077, numindb: 29
Update: records affected: 1



GetName: 25077 IRIDIUM 42 [-]

Hit Count: updated at: Mon, 16 Jul 2018 14:44:10 GMT